Zurück zum Katalog

QIANFAN-11

AktivKommunikationPO
NORAD 60389·PAYLOAD·🇨🇳 China

Gestartet Aug 6, 2024 von Taiyuan Satellite Launch Center

Loading…

Nächste Überflüge (nächste 24 Stunden)

TLE

AktuellSource: Space-Track

Epoche: Sep 14, 2026, 12:52 UTC

1 60389U 24140L   26257.53616987  .00000011  00000-0 -20873-5 0  9992
2 60389  88.9605 270.4733 0016222 117.2953 242.9852 13.51021059104353

Verfolge QIANFAN-11 in Echtzeit mit AllMySat

Download on the App Store